Starlink 11149

operational
NORAD ID: 60041 Int'l Des: 2024-112 Owner: SPXS Country: US Constellation: starlink
LEOCIRCULAR

About Starlink 11149

Description loading...

Live Position

Loading 3D Globe...

Upcoming Passes

Altitude History

Altitude vs Time

uPlot chart will show altitude changes over time

Two-Line Element Set

1 60041U 24112D 25354.13359845 -.00001574 00000-0 -81355-5 0 9994
2 60041 53.1596 298.6110 0001162 91.4733 268.6418 15.69716076 88487
Epoch: Dec 20, 2025 • Age: 22 hours

Current Status

Altitude 364.3 km
Velocity 7.70 km/s
Sub-Earth Point 47.88°N, 47.35°W
Launch Date Jun 8, 2024
Age 1.5 years
Type internet

Technical Details

Classification Payload
Mass 960.00 kg
Dry Mass 910.00 kg
Total Mass 960.00 kg
Length 0.30 m
Diameter 4.10 m
Span 29.00 m
Shape Box + pan
Manufacturer SPXS
Bus Type Starlink V2MD
Phase Status In Orbit
Owner/State SPXS/US

Large Constellations

Loading constellations...